Regional Weather Roundup
Issued by NWS

Home | Current Version | Previous Version | Text Only | Print | Product List | Glossary On
Versions: 1 2 3 4 5 6 7 8 9 10 11 12 13 14 15 16 17 18 19 20 21 22 23 24 25 26 27 28 29 30 31 32 33 34 35 36 37 38 39 40 41 42 43 44 45 46 47 48 49 50
000
ASUS43 KDTX 301001
RWRMI
MICHIGAN HOURLY REGIONAL WEATHER ROUNDUP
NATIONAL WEATHER SERVICE DETROIT/PONTIAC MI
600 AM EDT WED JUL 30 2014

NOTE: "FAIR" INDICATES FEW OR NO CLOUDS BELOW 12,000 FEET WITH NO
SIGNIFICANT WEATHER AND/OR OBSTRUCTION TO VISIBILITY.

MIZ047>049-052>055-059>063-066>070-074>076-081>083-301100-
SOUTHEAST LOWER MICHIGAN

CITY           SKY/WX    TMP DP  RH WIND       PRES   REMARKS
ADRIAN         MOCLDY    57  55  93 W3        29.99S
ALMA           CLOUDY    55  54  96 CALM      29.98S
ANN ARBOR      PTCLDY    53  51  93 W5        29.98R
BAD AXE        CLEAR     51  51 100 CALM      29.96R
CARO             N/A     52  52 100 CALM      29.95S FOG
DETROIT CITY   PTCLDY    60  55  83 W6        29.97R
DETROIT        CLOUDY    58  55  90 CALM      29.98R
FLINT          PTCLDY    55  52  89 W5        29.98R
GROSSE ILE     PTCLDY    59  55  88 W3        29.97R
HILLSDALE      MOCLDY    53  53 100 CALM      30.00R FOG
HOWELL         PTCLDY    54  53  98 W3        29.98R FOG

CITY           SKY/WX    TMP DP  RH WIND       PRES   REMARKS
JACKSON        PTCLDY    54  52  93 W3        29.99R
LAMBERTVILLE   MOCLDY    59  54  82 CALM      29.99R
LANSING        PTCLDY    55  53  93 W3        29.99S FOG
LAPEER         FOG       55  55  97 CALM      29.97S VSB 1/4
MASON          PTCLDY    53  52  97 CALM      29.99R FOG
MONROE         PTCLDY    55  54  94 CALM      29.97R
MT. CLEMENS    PTCLDY    58  57  97 W3        29.95S
PONTIAC        PTCLDY    56  54  93 CALM      29.97R
PORT HOPE        N/A     59  55  87 VRB3      29.93S
PORT HURON     FOG       50  50 100 CALM      29.96R VSB 1/2
TRI CITIES     CLOUDY    57  54  89 SW6       29.98R
TROY           PTCLDY    57  56  95 CALM      29.99R
SAGINAW HB     PTCLDY    54  54 100 W3        29.96S
$$
MIZ043>046-050>051-056>058-064>065-071>073-077>080-301100-
SOUTHWEST LOWER MICHIGAN

CITY           SKY/WX    TMP DP  RH WIND       PRES   REMARKS
BATTLE CREEK   PTCLDY    58  54  86 CALM      30.00R
BENTON HARBOR  CLEAR     53  52  96 CALM      30.00S FOG
BIG RAPIDS     CLOUDY    55  55 100 CALM      29.99R
COLDWATER      MOCLDY    58  56  95 CALM      30.00R
FREMONT        FOG       49  49 100 CALM      29.99R VSB 1/4
HOLLAND        CLEAR     58  55  90 W5        30.00R
GRAND RAPIDS   PTCLDY    57  55  93 CALM      29.99R
IONIA          FAIR      55  54  97 CALM      29.98S FOG
KALAMAZOO      CLEAR     57  54  89 CALM      30.01R FOG
LUDINGTON      MOCLDY    50  50  98 CALM      29.99S FOG
MARSHALL       FOG       50  50  99 CALM      29.99S VSB 3/4
MOUNT PLEASANT CLOUDY    56  55  95 CALM      29.97S
MUSKEGON       MOCLDY    53  50  89 S5        29.99S
SOUTH HAVEN    CLEAR     53  53 100 CALM      30.00S
$$
MIZ016>042-301100-
NORTHERN LOWER MICHIGAN

CITY           SKY/WX    TMP DP  RH WIND       PRES   REMARKS
ALPENA         CLEAR     50  49  96 W5        29.96R
BEAVER ISLAND  CLOUDY    54  54 100 NW6       29.98R
BELLAIRE       FOG       51  50  95 CALM      29.98S VSB<1/4
CADILLAC       FOG       52  52 100 CALM      29.99R VSB 1/2
CHARLEVOIX     CLEAR     53  52  99 NW5       30.01R
FRANKFORT      FOG       50  48  92 CALM      29.99R VSB 1/4
GAYLORD        CLEAR     49  48  97 CALM      29.98R
GRAYLING       FOG       51  51 100 CALM      29.99S VSB 1/4
HARBOR SPRINGS CLEAR     53  51  93 CALM      29.97R
HOUGHTON LAKE  CLEAR     50  50 100 CALM      29.99R FOG
MANISTEE       CLOUDY    52  48  87 CALM      30.00R VSB 1/4
OSCODA         CLEAR     52  51  97 NW6       29.95R
PELLSTON       CLEAR     48  46  93 CALM      29.98R FOG
ROGERS CITY    CLEAR     50  50 100 W5        29.97S
TRAVERSE CITY  CLEAR     52  49  89 CALM      29.97S
$$
MIZ007>008-015-301100-
EASTERN UPPER MICHIGAN

CITY           SKY/WX    TMP DP  RH WIND       PRES   REMARKS
KINROSS        CLOUDY    50  48  93 NW8       29.97R VSB 1/4
MACKINAC ISLAN CLOUDY    49  49 100 N8        29.97S FOG
NEWBERRY       FOG       48  48 100 NW6       29.98S VSB 1/4
S. S. MARIE    FOG       50  49  96 NW5       29.97R VSB 1
MUNISING         N/A     47  44  90 CALM      30.00S
$$
MIZ004>006-011>014-085-301100-
CENTRAL UPPER MICHIGAN

CITY           SKY/WX    TMP DP  RH WIND       PRES   REMARKS
MANISTIQUE     CLOUDY    51  51 100 N5        29.99R FOG
ESCANABA       CLOUDY    45  43  93 CALM      30.00S VSB 1/4
MENOMINEE        N/A     52  48  87 CALM      30.00S VSB 3/4
SAWYER-GWINN   CLEAR     48  46  94 N5        30.02R
$$
MIZ001>003-009>011-084-301100-
WESTERN UPPER MICHIGAN

CITY           SKY/WX    TMP DP  RH WIND       PRES   REMARKS
IRON MOUNTAIN  CLEAR     48  47  96 CALM      30.02R
HOUGHTON       CLEAR     48  45  89 NW8       30.03R
COPPER HARBOR    N/A     50  46  86 W5        30.01S
$$

ABBREVIATIONS USED IN REMARKS
   TC - TEMPERATURE IN CELSIUS
  WCI - WIND CHILL INDEX
   HX - HEAT INDEX
  VSB - VISIBILITY




USA.gov is the U.S. government's official web portal to all federal, state and local government web resources and services.